Location: Camaret
(48.2753°N, 4.5961°W)
Time: 00:59:34
(UTC+00:00)

Cosmos 2058 - Pass Details

Date: 29 October 2020
Orbit: 562 x 584 km, 82.5° (Epoch: 26 November)

Event Time Altitude Azimuth Distance (km) Brightness Sun altitude
Rises 19:05:20 0° 345° (NNW) 2,767 6.6 -20.7°
Reaches altitude 10° 19:07:34 10° 340° (NNW) 1,865 5.8 -21.1°
Maximum altitude 19:11:31 48° 266° (W) 744 3.8 -21.8°
Drops below altitude 10° 19:15:27 10° 192° (SSW) 1,854 5.6 -22.4°
Sets 19:17:40 0° 187° (S) 2,747 6.4 -22.8°
